TimeCST,TemperatureF,Dew PointF,Humidity,Sea Level PressureIn,VisibilityMPH,Wind Direction,Wind SpeedMPH,Gust SpeedMPH,PrecipitationIn,Events,Conditions,WindDirDegrees,DateUTC
12:53 AM,53.1,39.0,59,30.32,10.0,ENE,12.7,-,N/A,,Clear,70,2012-11-29 06:53:00
1:53 AM,53.1,41.0,64,30.32,10.0,ENE,13.8,-,N/A,,Clear,60,2012-11-29 07:53:00
2:53 AM,52.0,41.0,66,30.31,10.0,ENE,13.8,-,N/A,,Clear,70,2012-11-29 08:53:00
3:53 AM,52.0,41.0,66,30.30,10.0,ENE,15.0,-,N/A,,Clear,60,2012-11-29 09:53:00
4:53 AM,50.0,39.0,66,30.29,10.0,East,15.0,-,N/A,,Clear,80,2012-11-29 10:53:00
5:53 AM,50.0,39.0,66,30.30,10.0,East,13.8,-,N/A,,Clear,80,2012-11-29 11:53:00
6:53 AM,50.0,41.0,71,30.32,10.0,ENE,10.4,-,N/A,,Clear,70,2012-11-29 12:53:00
7:53 AM,52.0,43.0,71,30.33,10.0,ENE,12.7,-,N/A,,Clear,70,2012-11-29 13:53:00
8:53 AM,53.1,45.0,74,30.33,10.0,ENE,11.5,-,N/A,,Clear,70,2012-11-29 14:53:00
9:53 AM,57.0,46.9,69,30.35,10.0,ENE,8.1,-,N/A,,Clear,70,2012-11-29 15:53:00
10:53 AM,60.1,48.0,64,30.33,10.0,ENE,10.4,-,N/A,,Clear,70,2012-11-29 16:53:00
11:53 AM,62.1,52.0,70,30.31,10.0,ENE,11.5,-,N/A,,Clear,60,2012-11-29 17:53:00
12:53 PM,62.1,52.0,70,30.28,10.0,ENE,12.7,-,N/A,,Clear,70,2012-11-29 18:53:00
1:53 PM,63.0,52.0,67,30.25,9.0,East,11.5,-,N/A,,Partly Cloudy,90,2012-11-29 19:53:00
2:53 PM,62.1,53.1,72,30.24,9.0,East,12.7,-,N/A,,Clear,90,2012-11-29 20:53:00
3:53 PM,61.0,53.1,75,30.24,10.0,East,11.5,-,N/A,,Clear,100,2012-11-29 21:53:00
4:53 PM,59.0,53.1,81,30.24,8.0,East,10.4,-,N/A,,Clear,100,2012-11-29 22:53:00
5:53 PM,57.9,53.1,84,30.25,8.0,East,9.2,-,N/A,,Clear,100,2012-11-29 23:53:00
6:53 PM,57.0,53.1,87,30.26,8.0,East,8.1,-,N/A,,Clear,100,2012-11-30 00:53:00
7:53 PM,57.0,53.1,87,30.26,7.0,East,6.9,-,N/A,,Clear,100,2012-11-30 01:53:00
8:53 PM,54.0,51.1,90,30.27,7.0,SE,4.6,-,N/A,,Clear,140,2012-11-30 02:53:00
9:53 PM,54.0,51.1,90,30.27,10.0,ESE,4.6,-,N/A,,Scattered Clouds,120,2012-11-30 03:53:00
10:53 PM,55.9,51.1,84,30.26,10.0,East,5.8,-,N/A,,Partly Cloudy,100,2012-11-30 04:53:00
11:53 PM,57.0,51.1,81,30.25,10.0,ENE,6.9,-,N/A,,Partly Cloudy,70,2012-11-30 05:53:00